Temp
46 43 43 45 44 44 45 45 46 45 45 46 46 46 46 45 44 44 43 42 43 44
47 46 45 46 45 44 45 46 45 44 44 45 45 45 45 44 43 43 43 43 43 44
48 48 48 48 47 46 46 46 45 45 45 44 45 45 44 43 43 43 43 44 43 45
47 48 48 48 48 48 48 47 45 45 44 44 43 43 42 42 43 42 43 44 44 45
47 47 47 47 47 48 47 46 46 45 44 44 43 43 42 42 45 43 42 43 43 44
44 44 44 45 46 46 46 46 46 45 44 43 44 44 44 44 44 44 44 45 44 44
41 42 43 45 45 45 46 45 45 46 45 45 46 46 46 45 43 45 46 46 47 47
42 43 44 44 45 45 45 45 46 46 46 46 46 47 45 45 45 45 44 45 48 49
42 43 43 43 43 43 43 44 44 43 44 44 46 48 49 48 44 45 44 45 47 49
42 41 41 41 41 41 41 42 42 43 43 43 44 48 49 50 47 45 45 47 48 49
43 42 42 42 43 44 44 44 43 43 44 43 44 48 49 51 48 47 48 48 49 50
44 43 43 42 41 43 45 47 47 46 45 45 47 50 51 48 45 44 44 46 48 48
44 43 42 41 41 44 45 44 45 45 46 48 47 50 50 48 46 44 44 45 46 48
44 43 43 43 43 43 43 44 43 43 44 45 45 45 47 47 43 42 41 43 43 45
MSLP
1013.96 1013.46 1012.88 1012.19 1011.71 1011.13 1010.49 1009.95 1009.54 1009.23 1009.02 1008.79 1008.60 1008.49 1008.44 1008.48 1008.55 1008.63 1008.72 1008.74 1008.72 1008.53
1012.67 1012.05 1011.40 1010.67 1010.11 1009.65 1009.23 1008.79 1008.43 1008.16 1007.94 1007.74 1007.59 1007.55 1007.57 1007.66 1007.61 1007.66 1007.65 1007.66 1007.64 1007.61
1011.20 1010.52 1009.86 1009.24 1008.57 1008.15 1007.78 1007.42 1007.13 1006.96 1006.82 1006.66 1006.53 1006.54 1006.60 1006.65 1006.64 1006.76 1006.61 1006.60 1006.73 1006.58
1009.96 1009.22 1008.59 1008.01 1007.34 1006.87 1006.38 1006.08 1005.92 1005.75 1005.59 1005.52 1005.51 1005.50 1005.61 1005.60 1005.66 1005.70 1005.64 1005.59 1005.73 1005.53
1008.93 1008.15 1007.38 1006.68 1006.07 1005.60 1005.03 1005.10 1004.86 1004.60 1004.48 1004.34 1004.30 1004.28 1004.42 1004.47 1004.52 1004.63 1004.64 1004.62 1004.72 1004.55
1008.07 1007.21 1006.49 1005.72 1005.00 1004.52 1003.86 1003.63 1003.34 1003.31 1003.18 1003.17 1003.13 1003.13 1003.20 1003.37 1003.48 1003.58 1003.55 1003.60 1003.67 1003.66
1006.94 1006.17 1005.23 1004.45 1003.69 1003.02 1002.57 1002.17 1001.92 1001.80 1001.72 1001.77 1001.74 1001.85 1002.02 1002.26 1002.43 1002.53 1002.54 1002.62 1002.68 1002.74
1005.96 1005.06 1004.13 1003.28 1002.47 1001.80 1001.36 1000.85 1000.56 1000.41 1000.32 1000.43 1000.47 1000.64 1000.87 1001.10 1001.34 1001.53 1001.73 1001.89 1001.79 1001.75
1005.07 1004.10 1003.34 1002.40 1001.55 1000.73 999.98 999.50 999.25 999.12 999.26 999.33 999.31 999.41 999.50 999.73 1000.14 1000.53 1000.76 1000.92 1000.96 1000.99
1004.44 1003.49 1002.81 1001.81 1000.61 999.51 998.45 997.82 997.59 997.68 998.09 998.21 998.24 998.34 998.32 998.52 999.01 999.66 1000.02 1000.15 1000.20 1000.31
1003.77 1003.02 1002.31 1001.20 1000.03 998.84 996.88 995.22 995.63 996.50 997.07 997.30 997.21 997.19 997.36 997.60 998.27 999.04 999.33 999.48 999.43 999.43
1003.79 1003.10 1002.47 1001.70 1000.79 999.11 997.50 996.18 996.08 996.68 997.12 997.11 996.19 996.05 996.27 997.17 998.39 999.06 999.27 999.35 999.21 999.25
1004.79 1004.19 1003.59 1002.96 1001.79 1000.59 999.53 998.80 998.39 998.48 998.51 998.30 998.13 997.90 998.02 998.21 998.93 999.75 1000.45 1001.01 1001.46 1001.69
1005.91 1005.27 1004.72 1003.96 1003.08 1002.30 1001.53 1001.08 1000.91 1000.80 1000.83 1000.69 1000.49 1000.54 1000.32 1000.36 1000.72 1001.56 1002.25 1002.93 1003.54 1004.01
Wind_Speed
15 10 11 12 11 11 10 11 12 10 11 11 11 10 9 7 7 7 8 10 8 8
17 16 14 17 14 11 13 11 13 12 12 12 11 11 10 8 9 9 8 9 8 9
18 17 16 15 17 16 15 15 15 14 13 12 12 11 10 9 9 10 8 8 9 10
19 18 16 17 15 16 16 14 13 14 14 12 12 11 10 11 10 11 10 10 10 12
20 18 19 17 19 17 13 15 17 12 12 13 12 11 11 12 10 11 11 12 12 12
20 19 18 19 16 18 17 16 15 15 13 12 13 12 12 11 11 12 13 12 12 12
19 18 18 17 18 17 16 15 16 15 15 15 14 13 12 12 12 13 13 12 12 12
18 17 17 16 16 15 15 14 14 14 13 13 12 10 12 12 12 12 11 12 12 11
18 17 16 16 16 16 16 15 14 14 13 12 9 18 22 17 10 11 10 10 10 10
17 16 15 15 16 17 16 15 15 13 11 12 12 22 22 21 9 9 9 10 9 10
14 13 14 14 14 15 14 12 11 9 9 9 10 20 20 18 9 9 9 10 10 10
15 13 13 14 16 16 14 19 16 9 4 1 6 8 14 17 14 13 13 11 10 17
13 14 15 14 15 15 15 20 19 21 19 24 18 28 28 24 15 18 15 18 21 33
15 15 15 13 13 15 17 19 19 20 19 21 23 25 33 33 18 15 15 13 14 16
Wind_Direction
283 271 267 268 267 267 265 267 260 251 252 250 252 247 238 233 231 232 233 237 226 239
284 277 271 269 263 259 257 261 259 245 249 251 248 241 240 233 229 227 226 234 227 234
287 283 276 271 273 264 263 261 259 254 252 250 249 240 232 235 229 223 228 231 233 241
291 288 285 287 282 276 277 265 251 256 251 248 246 237 228 229 226 224 233 235 236 243
297 294 290 288 283 284 269 275 271 262 257 252 242 235 230 232 233 223 230 239 239 243
296 291 290 287 284 279 275 268 264 258 254 245 242 243 235 227 230 236 243 238 232 239
294 292 289 286 282 278 274 268 262 255 250 247 248 236 237 236 236 238 237 237 244 235
297 294 289 284 285 281 277 273 269 265 252 244 242 238 235 235 235 233 231 236 239 236
302 300 296 297 295 288 280 270 263 256 254 251 244 246 248 237 219 223 228 232 227 231
307 310 314 308 300 290 281 267 252 248 239 241 241 244 247 242 217 209 224 225 226 230
324 320 320 317 332 344 312 277 229 224 223 231 240 244 244 241 208 201 217 226 233 233
351 355 6 11 356 346 9 43 56 73 111 274 57 200 129 107 93 88 74 70 97 105
16 20 24 13 5 10 38 52 54 52 51 57 63 76 86 92 92 86 84 78 81 92
21 22 22 19 24 33 47 55 57 59 59 63 66 68 74 77 76 79 77 73 81 86